Weather in Malyshevo

Russia / Kurgan Oblast     54°55′49″N   63°25′10″E
temp.,
°C
wind,
m/s
gust,
m/s
humid.,
%
clouds,
%
prec.,
mm/h
press.,
hPa
HPBL,
m
27 february, sat
sat2723:00−29s47950 0.0 102986
02:00−30s47958 0.0 102888
05:00−31sse47954 0.0 1027102
08:00−30sse599749 0.0 1026159
11:00−24sse589867 0.0 1024248
14:00−20se71196100 0.1 1021389
17:00−14se71394100 0.5 1017737
20:00−12sse71394100 0.8 1015846
28 february, sun
sun2823:00−12sse71393100 1.3 1012677
02:00−11se71293100 0.6 1010576
05:00−11se61194100 0.9 1008386
08:00−11ese51095100 0.3 1006350
11:00−10e5894100 0.8 1005356
14:00−8ene5793100 0.3 1004418
17:00−9ene5894100 0.6 1005424
20:00−11ne499598 0.3 1006308
1 march, mon
mon123:00−13nne589598 0.3 1008258
02:00−15nne489599 0.1 1009258
05:00−18n479898 0.1 1012156
08:00−18n4796100 0.1 1014245
11:00−17n3594100 0.3 1016306
14:00−14n338999 0.1 1017393
17:00−15n339299 0.1 1017333
20:00−17n2297100 0.3 101828
2 march, tue
tue223:00−18n1297100 0.4 101820
02:00−18nnw1297100 0.1 101720
05:00−18nnw2297100 0.2 101726
08:00−18nw229799 0.1 101637
11:00−16nw229194 0.2 1016246
14:00−14w228599 0.0 1016444
17:00−15wsw239499 0.0 101599
20:00−20sw33970 0.0 101520
3 march, wed
wed323:00−21ssw34980 0.0 101531
02:00−22s34990 0.0 101454
05:00−22s44990 0.0 101465
08:00−21sse489879 0.0 1013146
11:00−17s579289 0.0 1013255
14:00−13s5894100 0.1 1012322
17:00−12s5993100 0.2 1012415
20:00−13sse51095100 0.1 1011258